Voltar ao catálogo

FENGYUN 1C DEB

AtivoSSO
NORAD 30310·DEBRIS·🇨🇳 China

Lançado May 10, 1999 de Taiyuan Satellite Launch Center

Loading…

Próximas Passagens (próximas 24 horas)

TLE

AtualizadoSource: Space-Track

Época: Sep 14, 2026, 23:29 UTC

1 30310U 99025ZX  26257.97885246  .00000684  00000-0  32431-3 0  9997
2 30310  98.6521 271.9811 0238107 294.1007  63.5423 14.09047445  6202

Acompanhe FENGYUN 1C DEB em tempo real com AllMySat

Download on the App Store